"Pseudo-MPEC" for C160775

Created 2025 Oct 4 12:35:09 UT using Find_Orb

Click here for an explanation of pseudo-MPECs

 
 Astrometry: 
     C160775* C2025 10 03.38831202 15 26.370+19 01 50.12   ~A3A5 21.52GVNEOCPV00
     C160775  C2025 10 03.39389802 15 25.963+19 01 46.49   ~A3A5 21.77GVNEOCPV00
     C160775  C2025 10 03.39948702 15 25.567+19 01 43.00   ~A3A5 21.90GVNEOCPV00
     C160775  C2025 10 03.40507202 15 25.164+19 01 39.32   ~A3A5 21.71GVNEOCPV00
     C160775  C2025 10 03.42953702 15 23.356+19 01 23.36   ~A3B5 21.5 GWNEOCPH01
     C160775  C2025 10 03.43397902 15 23.036+19 01 20.49   ~A3B5 21.3 GWNEOCPH01
     C160775 KC2025 10 03.43595102 15 22.910+19 01 19.52   ~A3B5 21.98GVNEOCPV06
     C160775 KC2025 10 03.44338002 15 22.381+19 01 14.84   ~A3B5 21.86GVNEOCPV06
     C160775  C2025 10 03.44360102 15 22.344+19 01 14.30   ~A3B5 21.3 GWNEOCPH01
     C160775 KC2025 10 03.44648002 15 22.162+19 01 12.86   ~A3B5 21.77GVNEOCPV06
     C160775 KC2025 10 03.44958302 15 21.946+19 01 10.81   ~A3B5 21.73GVNEOCPV06
     C160775  C2025 10 03.45006202 15 21.883+19 01 10.17   ~A3B5 21.3 GWNEOCPH01
     C160775 KC2025 10 04.24645102 14 27.244+18 52 39.36   ~A46Z 22.65GVNEOCPV06
     C160775 KC2025 10 04.24963002 14 27.013+18 52 37.45   ~A46Z 21.71GVNEOCPV06
     C160775 KC2025 10 04.25237802 14 26.63 +18 52 34.8    ~A46Z 21.6 GVNEOCPH21
     C160775 KC2025 10 04.25280802 14 26.786+18 52 35.40   ~A46Z 21.54GVNEOCPV06
     C160775 KC2025 10 04.25526802 14 26.36 +18 52 33.2    ~A46Z 21.7 GVNEOCPH21
     C160775 KC2025 10 04.25598602 14 26.556+18 52 33.56   ~A46Z 21.70GVNEOCPV06

Station data:
(H01) Magdalena Ridge Observatory, Socorro  (N33.984833 W107.189333)  US/New
   Mexico.  Observers W. H. Ryan, E. V. Ryan. Measurer W. H. Ryan. 2.4-m
   f/8.9 reflector + CCD.
(H21) Astronomical Research Observatory, Westfield  (N39.483054 W87.968270)
   US/Illinois.  Observer R. Holmes. Measurers S. Foglia, L. Buzzi, T.
   Linder, R. Holmes. 0.40-m f/5.32 astrograph + CCD.
(V00) Kitt Peak-Bok  (N31.963125 W111.600190)  US/Arizona. Measurers T.
   Beuden, V. F. Carvajal, D. Fay, J. B. Fazekas, D. C. Fuls, A. R. Gibbs, A.
   D. Grauer, H. Gröller, J. K. Hogan, R. A. Kowalski, S. M. Larson, G. J.
   Leonard, D. Rankin, R. L. Seaman, F. C. Shelly, K. W. Wierzchoś. 2.25-m
   reflector + 4x4K mosaic CCD.
(V06) Catalina Sky Survey-Kuiper  (N32.416871 W110.732550)  US/Arizona.
   Measurers T. Beuden, V. F. Carvajal, D. Fay, J. B. Fazekas, D. C. Fuls, A.
   R. Gibbs, A. D. Grauer, H. Gröller, J. K. Hogan, R. A. Kowalski, S. M.
   Larson, G. J. Leonard, D. Rankin, R. L. Seaman, F. C. Shelly, K. W.
   Wierzchoś. 1.55-m reflector + CCD.

Orbital elements:  C160775
   Perihelion 2026 Feb 9.944822 +/- 193 TT = 22:40:32.6 (JD 2461081.444822)
Epoch 2025 Oct  4.0 TT = JDT 2460952.5   Earth MOID: 0.1185   Ve: 0.0358
M 307.619909930 +/- 90              Ma: 0.0197                   AutoNEOCP
n   0.406220965 +/- 0.2             Peri.  307.506334 +/- 47
a   1.805626112 +/- 0.592           Node   213.552903 +/- 5.4
e   0.71299386 +/- 0.204            Incl.   14.490553 +/- 3.5
P   2.426/886.200d         H 19.94  G  0.15   U 11.7  SR
q 0.518225773 +/- 0.23    Q 3.093026450 +/- 4.48          (J2000 ecliptic)
From 18 observations 2025 Oct. 3-4 (20.8 hr); mean residual 0".23
Residuals in arcseconds: 
251003 V00  .48+  .33+    251003 V06  .29-  .11-    251004 V06  .06-  .09-    
251003 V00  .37+  .21+    251003 V06  .29-  .08-    251004 V06  .02-  .04+    
251003 V00  .41+  .23+    251003 H01  .23-  .16-    251004 H21  .38+  .23-    
251003 V00  .35+  .07+    251003 V06  .26-  .09-    251004 V06  .08+  .04+    
251003 H01  .06-  .03-    251003 V06  .19-  .16-    251004 H21  .42-  .05+    
251003 H01  .11-  .08-    251003 H01  .26-  .17-    251004 V06  .13+  .25+    

Ephemerides (geocentric):
Date (UTC) HH   RA             Dec           delta  r     elong  mag " sig PA
---- --------  ------------   ------------  ------ ------ -----  --- --------
2025 10 04 13  02 14 05.784   +18 49 27.52  .92436 1.8721 153.1 21.9 3.31 104
2025 10 04 14  02 14 02.783   +18 48 59.79  .92378 1.8717 153.2 21.9 3.81 107
2025 10 04 15  02 13 59.777   +18 48 32.00  .92320 1.8713 153.3 21.9 4.35 109
2025 10 04 16  02 13 56.764   +18 48 04.15  .92261 1.8710 153.3 21.9 4.93 111
2025 10 04 17  02 13 53.746   +18 47 36.24  .92203 1.8706 153.4 21.9 5.54 112
2025 10 04 18  02 13 50.721   +18 47 08.27  .92145 1.8703 153.4 21.9 6.18 113
2025 10 04 19  02 13 47.690   +18 46 40.24  .92087 1.8699 153.5 21.9 6.85 114
2025 10 04 20  02 13 44.652   +18 46 12.15  .92029 1.8695 153.5 21.9 7.56 115
2025 10 04 21  02 13 41.609   +18 45 44.00  .91971 1.8691 153.6 21.9 8.29 116
2025 10 04 22  02 13 38.559   +18 45 15.79  .91913 1.8688 153.6 21.9 9.06 116
2025 10 04 23  02 13 35.504   +18 44 47.52  .91855 1.8684 153.7 21.9 9.86 117
2025 10 05 00  02 13 32.442   +18 44 19.19  .91797 1.8680 153.7 21.9 10.7 117
2025 10 05 01  02 13 29.373   +18 43 50.80  .91739 1.8677 153.8 21.9 11.5 117
2025 10 05 02  02 13 26.299   +18 43 22.35  .91681 1.8673 153.9 21.9 12.4 118
2025 10 05 03  02 13 23.218   +18 42 53.85  .91623 1.8669 153.9 21.9 13.4 118
2025 10 05 04  02 13 20.132   +18 42 25.28  .91566 1.8666 154.0 21.9 14.3 118
2025 10 05 05  02 13 17.039   +18 41 56.65  .91508 1.8662 154.0 21.9 15.3 119
2025 10 05 06  02 13 13.940   +18 41 27.96  .91450 1.8658 154.1 21.9 16.3 119
2025 10 05 07  02 13 10.834   +18 40 59.20  .91392 1.8655 154.1 21.9 17.3 119
2025 10 05 08  02 13 07.723   +18 40 30.39  .91335 1.8651 154.2 21.9 18.4 119
2025 10 05 09  02 13 04.605   +18 40 01.52  .91277 1.8647 154.2 21.9 19.5 119
2025 10 05 10  02 13 01.481   +18 39 32.59  .91220 1.8644 154.3 21.9 20.7 120
2025 10 05 11  02 12 58.351   +18 39 03.59  .91162 1.8640 154.4 21.9 21.8 120
2025 10 05 12  02 12 55.215   +18 38 34.54  .91105 1.8636 154.4 21.9 23.0 120
2025 10 05 13  02 12 52.072   +18 38 05.42  .91047 1.8633 154.5 21.9 24.3 120
2025 10 05 14  02 12 48.923   +18 37 36.25  .90990 1.8629 154.5 21.9 25.5 120
2025 10 05 15  02 12 45.768   +18 37 07.01  .90932 1.8625 154.6 21.9 26.8 120
2025 10 05 16  02 12 42.607   +18 36 37.71  .90875 1.8622 154.6 21.9 28.1 120
2025 10 05 17  02 12 39.439   +18 36 08.35  .90818 1.8618 154.7 21.8 29.5 120
2025 10 05 18  02 12 36.266   +18 35 38.93  .90761 1.8614 154.7 21.8 30.9 120
2025 10 05 19  02 12 33.086   +18 35 09.44  .90703 1.8611 154.8 21.8 32.3 120
2025 10 05 20  02 12 29.899   +18 34 39.90  .90646 1.8607 154.8 21.8 33.8 121
2025 10 05 21  02 12 26.707   +18 34 10.29  .90589 1.8603 154.9 21.8 35.2 121
2025 10 05 22  02 12 23.508   +18 33 40.62  .90532 1.8600 155.0 21.8 36.8 121
2025 10 05 23  02 12 20.303   +18 33 10.89  .90475 1.8596 155.0 21.8 38.3 121
2025 10 06 00  02 12 17.092   +18 32 41.10  .90418 1.8592 155.1 21.8 39.9 121
2025 10 06 01  02 12 13.875   +18 32 11.25  .90361 1.8588 155.1 21.8 41.5 121
2025 10 06 02  02 12 10.651   +18 31 41.33  .90304 1.8585 155.2 21.8 43.1 121
2025 10 06 03  02 12 07.421   +18 31 11.36  .90247 1.8581 155.2 21.8 44.8 121
2025 10 06 04  02 12 04.185   +18 30 41.32  .90190 1.8577 155.3 21.8 46.5 121
2025 10 06 05  02 12 00.943   +18 30 11.22  .90133 1.8574 155.3 21.8 48.2 121
2025 10 06 06  02 11 57.694   +18 29 41.05  .90076 1.8570 155.4 21.8 50.0 121
2025 10 06 07  02 11 54.439   +18 29 10.83  .90020 1.8566 155.5 21.8 51.8 121
2025 10 06 08  02 11 51.178   +18 28 40.54  .89963 1.8563 155.5 21.8 53.6 121
2025 10 06 09  02 11 47.911   +18 28 10.19  .89906 1.8559 155.6 21.8 55.5 121
2025 10 06 10  02 11 44.637   +18 27 39.78  .89850 1.8555 155.6 21.8 57.4 121
2025 10 06 11  02 11 41.357   +18 27 09.30  .89793 1.8551 155.7 21.8 59.3 121
2025 10 06 12  02 11 38.071   +18 26 38.76  .89736 1.8548 155.7 21.8 61.3 121